www.pogodaiklimat.ru
Время
и дата
04:18 23.06
04:45 23.06
04:53 23.06
05:53 23.06
06:53 23.06
07:53 23.06
08:53 23.06
09:53 23.06
10:53 23.06
11:53 23.06
12:53 23.06
13:53 23.06
14:53 23.06
15:53 23.06
16:53 23.06
17:53 23.06
18:53 23.06
19:53 23.06
20:53 23.06
21:53 23.06
22:53 23.06
23:53 23.06
00:53 24.06
01:53 24.06
02:53 24.06
03:53 24.06
04:53 24.06
05:53 24.06
06:53 24.06
07:53 24.06
08:16 24.06
08:42 24.06
08:53 24.06
09:53 24.06
10:53 24.06
11:53 24.06
12:53 24.06
13:53 24.06
14:53 24.06
15:53 24.06
16:53 24.06
17:53 24.06
18:53 24.06
19:53 24.06
20:53 24.06
21:53 24.06
22:53 24.06
23:53 24.06
Ветер
(напр.,м/с)
Видим. Явления Облачность Т
(С)
Тd
(С)
f
(%)
Тe
(С)
Тes
(С)
Комфортность P
(гПа)
Po
(гПа)
Тmin
(С)
Tmax
(С)
R
(мм)
R24
(мм)
S
(см)
СЗ 3 16 км 10/10 810 м +15.6 +10.0 69 +15 +15 1015.7
С 2 16 км 10/10 780 м +15.0 +9.4 69 +15 +15 1016.1
нст 2 16 км 10/10 780 м +15.0 +9.4 69 +15 +15 1017.3 1016.1
С 2 16 км 10/10 1110 м +15.0 +8.9 67 +15 +15 1017.6 1016.4
СЗ 3 16 км 10/10 990 м +15.6 +8.9 64 +15 +15 1018.2 1017.1
нст 2 16 км 10/10 1080 м +16.1 +8.9 62 +16 +16 1018.7 1017.4
16 км 10/10 1200 м +16.7 +8.9 60 +17 +17 1018.4 1017.1
штиль 0 16 км 10/10 1110 м +17.8 +8.9 56 +18 +18 1018.7 1017.4 +15.0 +17.8
ЮЗ 3 16 км 5/5 1800 м +18.9 +8.3 50 +20 +26 1018.6 1017.4
нст 2 16 км 8/8 1650 м +19.4 +7.8 47 +21 +24 комфорт 1018.6 1017.4
Ю 3 16 км 8/8 1800 м +20.6 +7.8 44 +22 +25 комфорт 1018.3 1017.1
З 3 16 км 10/10 1800 м +21.1 +8.3 44 +22 +22 комфорт 1018.2 1017.1
СЗ 5
{8}
16 км 10/10 1950 м +21.1 +8.9 46 +22 +22 комфорт 1018.2 1017.1
С 5
{8}
16 км 8/0 2100 m
[Ac]
+21.7 +8.9 44 +23 +26 комфорт 1018.0 1016.7 +18.3 +21.7
СЗ 5
{8}
16 км 10/10 1290 м +20.0 +8.9 49 +21 +21 комфорт 1018.0 1016.7
СЗ 6 16 км 8/8 1800 м +20.0 +8.3 47 +21 +21 комфорт 1018.2 1017.1
СЗ 4 16 км 2/2 1500 м +18.9 +8.3 50 +19 +21 1018.3 1017.1
нст 3 16 км 5/5 1500 м +17.8 +8.3 54 +18 +18 1018.4 1017.1
СЗ 3 16 км 5/5 1500 м +17.2 +7.8 54 +17 +17 1018.9 1017.8
С 3 16 км 5/5 1470 м +16.1 +8.3 60 +16 +16 1019.2 1018.1 +16.1 +21.7
С 3 16 км ясно +15.0 +8.3 64 +14 +14 1019.1 1018.1
нст 2 16 км ясно +13.9 +8.3 69 +13 +13 1019.0 1017.8
нст 3 16 км ясно +13.3 +8.3 72 +12 +12 1019.1 1018.1
штиль 0 16 км 2/2 1410 м +13.3 +8.9 75 +13 +13 1019.3 1018.1
штиль 0 16 км ясно +11.7 +8.3 80 +11 +11 1019.4 1018.1
СЗ 2 16 км ясно +12.2 +8.9 80 +11 +11 1019.4 1018.4 +11.7 +16.1
СЗ 2 16 км ясно +12.2 +8.9 80 +11 +11 1019.5 1018.4
штиль 0 16 км ясно +13.9 +9.4 74 +14 +14 1019.9 1018.8
С 3 16 км ясно +15.0 +8.9 67 +14 +16 1019.8 1018.8
СЗ 3 16 км ясно +16.1 +8.3 60 +16 +19 1019.8 1018.4
СЗ 4 16 км 8/8 870 м +17.2 +8.3 56 +17 +18 1018.4
СЗ 4 16 км 5/5 870 м +16.7 +8.3 58 +16 +19 1018.4
С 3 16 км 2/2 870 м +17.2 +8.3 56 +17 +22 1019.6 1018.4
16 км ясно +17.8 +8.3 54 +18 +33 опасность
простуды
1019.5 1018.4 +12.2 +17.8
З 3 16 км ясно +19.4 +8.3 49 +20 +33 опасность
простуды
1019.1 1018.1
16 км ясно +20.6 +7.8 44 +22 +46 комфорт 1018.8 1017.8
нст 3
{8}
16 км ясно +21.7 +8.9 44 +23 +39 комфорт 1017.9 1016.7
З 5
{9}
16 км ясно +22.8 +8.9 41 +24 +34 комфорт 1017.2 1016.1
СЗ 3 16 км ясно +22.8 +7.8 38 +24 +37 комфорт 1016.8 1015.7
СЗ 4
{7}
16 км ясно +23.3 +7.2 35 +24 +33 комфорт 1016.0 1015.1 +17.8 +23.9
СЗ 4 16 км ясно +23.9 +8.3 37 +24 +30 комфорт 1015.7 1014.4
нст 3
{8}
16 км ясно +23.9 +8.3 37 +24 +29 комфорт 1015.3 1014.0
СЗ 4 16 км ясно +22.8 +8.3 39 +24 +25 комфорт 1015.3 1014.0
СЗ 5 16 км ясно +21.1 +8.9 46 +22 +23 комфорт 1015.2 1014.0
СЗ 3 16 км ясно +20.0 +8.9 49 +21 +21 комфорт 1015.4 1014.4
СЗ 3 16 км ясно +18.9 +10.0 56 +20 +20 1015.4 1014.4 +18.9 +24.4
СЗ 3 16 км ясно +17.8 +10.0 60 +18 +18 1015.2 1014.0
СЗ 2 16 км ясно +16.7 +9.4 62 +17 +17 1015.3 1014.0
Местоположение метеостанции Pearson Field Airport: широта 45.6208 долгота -122.6572 высота над уровнем моря 9 м.
В архиве по умолчанию представлена погода в Ванкувере за последние 1-2 суток. Обновление информации о фактической погоде в базе происходит ежечасно! Архивные данные за месяц целиком и за предыдущие месяцы Вы можете получить, выбрав интересующий диапазон дат из раскрывающегося списка и нажав кнопку "Ввод!".
Внимание! Архив погоды МЕТАР в базе сайта по станциям, не включенным в климатический монитор, хранится не более 60 дней. Нет смысла пытаться выбрать более раннюю дату.
*Определитесь, кто Вы:
Внимание! Время в таблицах - местное (без учета летнего времени). Для получения всемирного времени необходимо вычесть поправку, которая равна -8 ч.
Смотрите также архив погоды в соседних городах и на ближайших метеорологических станциях:
Партнеры нашего сайта:      
Пояснения к столбцам:
  • Ветер - указаны скорость ветра в м/с - средняя за 10 мин, порывы в срок и между сроками (в фигурных скобках) и направление, откуда дует ветер: С - северный,
  • СВ - северо-восточный, В - восточный, ЮВ - юго-восточный, Ю - южный, ЮЗ - юго-западный, З - западный, СЗ - северо-западный.
  • Видимость - горизонтальная дальность видимости в метрах или километрах. При видимости от 1 до 10 км при отсутствии осадков обычно наблюдается дымка, при ухудшении видимости до 1 км и менее - туман. В сухую погоду видимость может ухудшаться дымом, пылью или мглою.
  • Явления - указаны атмосферные явления, наблюдавшиеся в срок или в последний час перед сроком; фигурными скобками обозначены явления, наблюдавшиеся между сроками (за 1-3 часа до срока); квадратными скобками обозначены град или гололедные отложения с указанием их диаметра в мм.
  • Облачность - указаны через наклонную черту общая и нижняя облачность в баллах и высота нижней границы облаков в метрах; квадратными скобками обозначены формы облаков: Ci - перистые, Cs - перисто-слоистые, Cc - перисто-кучевые, Ac - высококучевые, As - высокослоистые, Sc - слоисто-кучевые, Ns - слоисто-дождевые, Cu - кучевые, Cb - кучево-дождевые. Подробнее классификацию облаков см. в Атласе облаков (PDF).
  • T - Температура воздуха - температура, измеренная на высоте 2 м над землей.
  • Td - Температура точки росы - температура, при понижении до которой содержащийся в воздухе водяной пар достигнет насыщения.
  • f - Относительная влажность воздуха - влажноcть воздуха, измеренная на высоте 2 м над землей.
  • Te - Эффективная температура - температура, которую ощущает одетый по сезону человек в тени. Характеристика душности погоды. При расчете учитывается влияние влажности воздуха и скорости ветра на теплоощущения человека.
  • Tes - Эффективная температура на солнце - температура, которую ощущает человек, с поправкой на солнечный нагрев. Характеристика знойности погоды. Зависит от высоты солнца над горизонтом, облачности и скорости ветра. Ночью, в пасмурную погоду, а также при ветре 12 м/с и более поправка равна нулю.
  • P - Атмосферное давление - приведенное к уровню моря атмосферное давление.
  • Po - Атмосферное давление - измеренное на уровне метеостанции атмосферное давление.
  • Tmin - Минимальная температура - минимум температуры воздуха на высоте 2 м над землей.
  • Tmax - Максимальная температура - максимум температуры воздуха на высоте 2 м над землей.
  • R - Количество осадков - Количество выпавших осадков за период времени, мм. При наведении курсора мыши на число - период времени, за который выпало указанное количество осадков.
  • R24 - Количество осадков - Количество выпавших осадков за 24 часа, мм.
  • S - Снежный покров - Высота снежного покрова, см. При наведении курсора мыши на число - состояние снежного покрова и степень покрытия местности в баллах.